Overview Statistics Trail Chart Weather Telemetry Raw packets
 

This is the latest recevied weather packets stored in our database for station/object KC1BRV. If no packets are shown the sender has not sent any weather packets the latest 10 day(s).

<< 1 2 3 4 >>
Time Temp. Humidity Pressure Rain* Wind** Luminosity Snow
1788637416 20.56° C 80% 1011.1 hPa 0 mm - 69 W/m² -
1788637115 20.56° C 79% 1011.3 hPa 0 mm - 78 W/m² -
1788636810 21.11° C 78% 1011.2 hPa 0 mm - 96 W/m² -
1788636506 21.67° C 79% 1011.2 hPa 0 mm - 99 W/m² -
1788636202 21.67° C 78% 1011.2 hPa 0 mm - 152 W/m² -
1788635901 21.11° C 80% 1011 hPa 0 mm - 158 W/m² -
1788635600 20.56° C 82% 1011.1 hPa 0 mm - 172 W/m² -
1788635299 20.56° C 88% 1011.2 hPa 0 mm - 212 W/m² -
1788634993 20° C 89% 1011 hPa 0 mm - 190 W/m² -
1788634692 20° C 88% 1011.2 hPa 0 mm - 185 W/m² -
1788634387 19.44° C 90% 1011.3 hPa 0 mm - 200 W/m² -
1788634086 19.44° C 89% 1011.2 hPa 0 mm - 186 W/m² -
1788633786 19.44° C 90% 1011.2 hPa 0 mm - 142 W/m² -
1788633484 20° C 90% 1011.3 hPa 0 mm - 88 W/m² -
1788633180 20° C 90% 1011.2 hPa 0 mm - 71 W/m² -
1788632880 20° C 89% 1011.3 hPa 0 mm - 59 W/m² -
1788632573 20° C 88% 1011.3 hPa 0 mm - 76 W/m² -
1788632269 20.56° C 87% 1011.1 hPa 0 mm - 104 W/m² -
1788631969 20.56° C 87% 1011.2 hPa 0 mm - 168 W/m² -
1788631668 21.67° C 88% 1011.3 hPa 0 mm - 222 W/m² -
1788631363 21.67° C 89% 1011.3 hPa 0 mm - 228 W/m² -
1788631058 21.11° C 88% 1011.2 hPa 0 mm - 240 W/m² -
1788630753 21.11° C 91% 1011.2 hPa 0 mm - 269 W/m² -
1788630448 20.56° C 93% 1011.2 hPa 0 mm - 297 W/m² -
1788630144 20° C 92% 1011.3 hPa 0 mm - 264 W/m² -

* Rain latest hour (hover to see other rain measurements)
** Current wind speed in m/s (hover to see current wind gust speed)